Location: Góry Miechowskie
(50.3599°N, 20.1803°E)
Time: 07:19:10
(UTC+00:00)

A-11 Canister half - Pass Details

Date: 20 September 2024
Orbit: 1515 x 1684 km, 47.2° (Epoch: 05 October)

Event Time Altitude Azimuth Distance (km) Brightness Sun altitude
Rises 18:36:58 0° 264° (W) 4,722 12.6 -18.7°
Reaches altitude 10° 18:40:03 10° 263° (W) 3,720 11.8 -19.1°
Maximum altitude 18:49:22 75° 180° (S) 1,569 8.9 -20.5°
Enters shadow 18:54:32 30° 102° (ESE) 2,445 9.5 -21.2°
Drops below altitude 10° 18:58:34 10° 98° (E) 3,677 - -21.8°
Sets 19:01:36 0° 97° (E) 4,664 - -22.2°
